When you browse on this site, cookies collect data to enhance your experience and personalize the content and advertising you see.
Visit our Privacy Policy to learn more. By continuing to use the site, you agree to this use of cookies and data.
  • In Hungary
  • List of Countries
  • For 7 days
  • Water Temperature
  • Satellite Maps
  • Weather Map
  • News
  • Weather Widgets
  • user-avatar
    Login

    Hourly Weather Chipurupalle

    Today, 21 November, Wednesday

    Time Temperature Precipitation Wind Pressure Humidity
    00:00 +24°C° 0 mm 1 mps 753 mmHg 82%
    01:00 +24°C° 0 mm 1 mps 753 mmHg 84%
    02:00 +24°C° 0 mm 1 mps 753 mmHg 85%
    03:00 +23°C° 0 mm 2 mps 752 mmHg 87%
    04:00 +23°C° 0 mm 2 mps 752 mmHg 87%
    05:00 +23°C° 0 mm 2 mps 752 mmHg 87%
    06:00 +23°C° 0 mm 2 mps 753 mmHg 86%
    07:00 +24°C° 0 mm 2 mps 753 mmHg 79%
    08:00 +26°C° 0 mm 2 mps 753 mmHg 72%
    09:00 +28°C° 0 mm 2 mps 753 mmHg 65%
    10:00 +29°C° 0 mm 2 mps 753 mmHg 59%
    11:00 +31°C° 0 mm 2 mps 753 mmHg 53%
    12:00 +33°C° 0 mm 3 mps 753 mmHg 48%
    13:00 +33°C° 0 mm 3 mps 752 mmHg 47%
    14:00 +34°C° 0 mm 3 mps 752 mmHg 46%
    15:00 +34°C° 0 mm 3 mps 751 mmHg 45%
    16:00 +31°C° 0 mm 3 mps 751 mmHg 51%
    17:00 +29°C° 0 mm 3 mps 751 mmHg 58%
    18:00 +27°C° 0 mm 3 mps 752 mmHg 66%
    19:00 +26°C° 0 mm 2 mps 752 mmHg 69%
    20:00 +26°C° 0 mm 2 mps 752 mmHg 72%
    21:00 +25°C° 0 mm 1 mps 753 mmHg 75%
    22:00 +25°C° 0 mm 1 mps 753 mmHg 75%
    23:00 +25°C° 0 mm 1 mps 753 mmHg 76%

    Tomorrow, 22 November, Thursday

    Time Temperature Precipitation Wind Pressure Humidity
    00:00 +24°C° 0 mm 1 mps 753 mmHg 77%
    01:00 +24°C° 0 mm 1 mps 753 mmHg 78%
    02:00 +24°C° 0 mm 1 mps 753 mmHg 78%
    03:00 +23°C° 0 mm 1 mps 752 mmHg 79%
    04:00 +23°C° 0 mm 1 mps 752 mmHg 79%
    05:00 +23°C° 0 mm 2 mps 753 mmHg 78%
    06:00 +23°C° 0 mm 2 mps 753 mmHg 78%
    07:00 +24°C° 0 mm 2 mps 753 mmHg 72%
    08:00 +26°C° 0 mm 2 mps 754 mmHg 65%
    09:00 +27°C° 0 mm 2 mps 754 mmHg 59%
    10:00 +29°C° 0 mm 2 mps 754 mmHg 54%
    11:00 +30°C° 0 mm 2 mps 754 mmHg 49%
    12:00 +32°C° 0 mm 2 mps 754 mmHg 44%
    13:00 +32°C° 0 mm 2 mps 753 mmHg 44%
    14:00 +33°C° 0 mm 3 mps 752 mmHg 44%
    15:00 +33°C° 0 mm 3 mps 752 mmHg 43%
    16:00 +31°C° 0 mm 3 mps 752 mmHg 51%
    17:00 +29°C° 0 mm 3 mps 752 mmHg 58%
    18:00 +27°C° 0 mm 3 mps 752 mmHg 65%
    19:00 +26°C° 0 mm 2 mps 753 mmHg 69%
    20:00 +26°C° 0 mm 2 mps 753 mmHg 73%
    21:00 +25°C° 0 mm 1 mps 754 mmHg 77%
    22:00 +25°C° 0 mm 1 mps 754 mmHg 78%
    23:00 +24°C° 0 mm 1 mps 754 mmHg 79%

    Day after tomorrow, 23 November, Friday

    Time Temperature Precipitation Wind Pressure Humidity
    00:00 +24°C° 0 mm 1 mps 754 mmHg 80%
    01:00 +24°C° 0 mm 1 mps 754 mmHg 81%
    02:00 +24°C° 0 mm 1 mps 754 mmHg 82%
    03:00 +23°C° 0 mm 1 mps 753 mmHg 83%
    04:00 +23°C° 0 mm 1 mps 753 mmHg 83%
    05:00 +23°C° 0 mm 2 mps 753 mmHg 82%
    06:00 +23°C° 0 mm 2 mps 753 mmHg 82%
    07:00 +24°C° 0 mm 2 mps 754 mmHg 76%
    08:00 +26°C° 0 mm 2 mps 754 mmHg 70%
    09:00 +27°C° 0 mm 2 mps 755 mmHg 64%
    10:00 +29°C° 0 mm 2 mps 755 mmHg 57%
    11:00 +31°C° 0 mm 1 mps 754 mmHg 51%
    12:00 +32°C° 0 mm 1 mps 754 mmHg 45%
    13:00 +32°C° 0 mm 2 mps 753 mmHg 44%
    14:00 +34°C° 0 mm 2 mps 753 mmHg 43%
    15:00 +34°C° 0 mm 2 mps 752 mmHg 42%
    16:00 +31°C° 0 mm 3 mps 752 mmHg 49%
    17:00 +29°C° 0 mm 3 mps 752 mmHg 57%
    18:00 +27°C° 0 mm 3 mps 752 mmHg 65%
    19:00 +27°C° 0 mm 2 mps 753 mmHg 69%
    20:00 +26°C° 0 mm 1 mps 753 mmHg 74%
    21:00 +23°C° 0 mm 0 mps 754 mmHg 78%
    22:00 +25°C° 0 mm 1 mps 754 mmHg 80%
    23:00 +24°C° 0 mm 1 mps 754 mmHg 81%

    24 November, Saturday

    Time Temperature Precipitation Wind Pressure Humidity
    00:00 +24°C° 0 mm 1 mps 754 mmHg 83%
    01:00 +23°C° 0 mm 1 mps 753 mmHg 84%
    02:00 +23°C° 0 mm 1 mps 753 mmHg 84%
    03:00 +23°C° 0 mm 1 mps 753 mmHg 85%
    04:00 +22°C° 0 mm 1 mps 753 mmHg 84%
    05:00 +22°C° 0 mm 1 mps 753 mmHg 83%
    06:00 +22°C° 0 mm 1 mps 753 mmHg 83%
    07:00 +24°C° 0 mm 2 mps 754 mmHg 75%
    08:00 +25°C° 0 mm 2 mps 754 mmHg 67%
    09:00 +27°C° 0 mm 2 mps 755 mmHg 59%
    10:00 +29°C° 0 mm 2 mps 755 mmHg 50%
    11:00 +31°C° 0 mm 2 mps 754 mmHg 42%
    12:00 +32°C° 0 mm 1 mps 754 mmHg 34%
    13:00 +34°C° 0 mm 2 mps 753 mmHg 32%
    14:00 +34°C° 0 mm 2 mps 753 mmHg 30%
    15:00 +35°C° 0 mm 2 mps 752 mmHg 28%
    16:00 +31°C° 0 mm 2 mps 752 mmHg 36%
    17:00 +29°C° 0 mm 2 mps 752 mmHg 45%
    18:00 +27°C° 0 mm 2 mps 752 mmHg 53%
    19:00 +26°C° 0 mm 2 mps 753 mmHg 57%
    20:00 +25°C° 0 mm 1 mps 753 mmHg 62%
    21:00 +24°C° 0 mm 1 mps 754 mmHg 66%
    22:00 +24°C° 0 mm 1 mps 754 mmHg 66%
    23:00 +23°C° 0 mm 1 mps 754 mmHg 66%

    25 November, Sunday

    Time Temperature Precipitation Wind Pressure Humidity
    00:00 +23°C° 0 mm 1 mps 754 mmHg 66%
    01:00 +22°C° 0 mm 1 mps 753 mmHg 64%
    02:00 +22°C° 0 mm 1 mps 753 mmHg 63%
    03:00 +20°C° 0 mm 2 mps 752 mmHg 61%
    04:00 +20°C° 0 mm 2 mps 752 mmHg 59%
    05:00 +20°C° 0 mm 2 mps 753 mmHg 56%
    06:00 +19°C° 0 mm 2 mps 753 mmHg 53%
    07:00 +21°C° 0 mm 2 mps 753 mmHg 49%
    08:00 +24°C° 0 mm 2 mps 754 mmHg 44%
    09:00 +26°C° 0 mm 2 mps 754 mmHg 40%
    10:00 +28°C° 0 mm 2 mps 754 mmHg 35%
    11:00 +29°C° 0 mm 2 mps 754 mmHg 30%
    12:00 +31°C° 0 mm 2 mps 753 mmHg 25%
    13:00 +32°C° 0 mm 2 mps 752 mmHg 24%
    14:00 +32°C° 0 mm 2 mps 751 mmHg 23%
    15:00 +32°C° 0 mm 2 mps 751 mmHg 23%
    16:00 +30°C° 0 mm 2 mps 751 mmHg 30%
    17:00 +28°C° 0 mm 2 mps 751 mmHg 38%
    18:00 +25°C° 0 mm 3 mps 751 mmHg 45%
    19:00 +24°C° 0 mm 2 mps 752 mmHg 49%
    20:00 +23°C° 0 mm 1 mps 752 mmHg 53%
    21:00 +22°C° 0 mm 1 mps 753 mmHg 57%
    22:00 +22°C° 0 mm 1 mps 753 mmHg 57%
    23:00 +22°C° 0 mm 1 mps 753 mmHg 58%

    26 November, Monday

    Time Temperature Precipitation Wind Pressure Humidity
    00:00 +21°C° 0 mm 1 mps 752 mmHg 59%
    01:00 +21°C° 0 mm 1 mps 752 mmHg 58%
    02:00 +20°C° 0 mm 2 mps 751 mmHg 58%
    03:00 +19°C° 0 mm 2 mps 751 mmHg 57%
    04:00 +19°C° 0 mm 2 mps 751 mmHg 56%
    05:00 +19°C° 0 mm 2 mps 751 mmHg 55%
    06:00 +18°C° 0 mm 2 mps 752 mmHg 54%
    07:00 +20°C° 0 mm 2 mps 752 mmHg 50%
    08:00 +23°C° 0 mm 2 mps 753 mmHg 45%
    09:00 +25°C° 0 mm 2 mps 753 mmHg 41%
    10:00 +27°C° 0 mm 1 mps 753 mmHg 38%
    11:00 +29°C° 0 mm 1 mps 753 mmHg 34%
    12:00 +31°C° 0 mm 1 mps 752 mmHg 30%
    13:00 +31°C° 0 mm 1 mps 751 mmHg 29%
    14:00 +32°C° 0 mm 1 mps 751 mmHg 28%
    15:00 +32°C° 0 mm 2 mps 750 mmHg 27%
    16:00 +30°C° 0 mm 2 mps 750 mmHg 33%
    17:00 +28°C° 0 mm 2 mps 750 mmHg 40%
    18:00 +25°C° 0 mm 2 mps 750 mmHg 47%
    19:00 +24°C° 0 mm 2 mps 751 mmHg 51%
    20:00 +24°C° 0 mm 2 mps 752 mmHg 56%
    21:00 +23°C° 0 mm 1 mps 752 mmHg 61%
    22:00 +22°C° 0 mm 1 mps 752 mmHg 63%
    23:00 +22°C° 0 mm 1 mps 752 mmHg 64%
    Show more